GFSCGP_925_temp_276.txt.gz
Temp
33 32 32 34 35 36 37 37 37 38 39 38 37 37 38 39 39 39 39 38 37 30 27 23 20 20 29 30 30 29 28 28 26 24 24 22 21 21 19 19 17 16 15 15
33 31 34 36 36 36 36 36 36 38 39 37 37 37 38 39 39 39 39 36 34 23 21 20 21 17 23 25 24 23 22 24 22 21 20 20 20 19 19 18 16 15 15 14
32 34 35 35 36 35 35 34 35 36 38 38 36 35 36 38 39 39 38 36 33 25 21 21 21 23 23 20 19 19 20 20 20 20 20 19 18 18 18 17 16 15 14 14
33 35 36 35 35 35 33 36 36 36 36 35 37 33 36 37 37 37 36 34 32 32 24 25 25 24 23 21 20 19 19 19 19 19 19 19 19 17 17 17 16 15 14 14
33 34 35 34 34 35 34 36 36 36 35 35 35 35 36 38 36 35 33 32 31 31 30 28 25 23 22 21 18 17 16 17 17 17 17 18 17 18 17 16 16 16 16 15
34 37 36 35 36 35 36 35 34 35 34 33 34 34 36 36 36 33 32 31 30 29 27 26 24 23 22 21 18 16 16 16 16 16 16 16 15 15 15 15 16 15 16 16
34 34 36 36 34 35 35 33 31 31 32 32 35 34 36 36 34 32 31 30 29 28 27 25 25 24 22 21 19 17 16 16 16 15 15 14 14 15 15 14 14 14 15 15
32 32 35 35 34 34 34 33 31 30 32 33 35 34 35 36 35 33 32 31 30 29 28 27 26 24 23 21 20 18 17 16 16 15 14 13 14 15 15 14 13 13 14 13
32 33 36 35 35 35 34 32 34 32 34 33 33 33 34 34 33 32 31 30 30 29 28 27 25 23 22 21 20 19 18 16 15 15 14 14 13 13 13 13 13 13 12 12
33 32 36 36 36 35 35 35 32 33 30 30 34 33 33 32 32 32 31 30 29 28 27 26 25 23 21 20 19 19 18 16 16 15 15 15 14 13 13 13 12 12 11 11
33 32 33 36 34 33 33 33 34 34 33 31 31 32 33 32 33 32 32 31 29 28 27 26 24 22 21 20 19 18 17 16 15 15 14 14 13 13 12 12 12 11 11 11
34 32 31 33 36 36 35 34 33 32 31 32 32 31 35 34 34 33 33 32 30 29 27 26 24 22 21 21 19 18 17 17 15 14 14 13 12 12 12 12 12 11 11 11
34 31 30 31 33 35 33 34 34 33 31 31 30 31 34 34 34 34 34 32 30 29 27 26 24 22 21 20 19 17 17 16 14 14 13 13 12 13 12 12 12 11 11 11
31 31 30 30 32 34 32 33 34 33 30 31 31 32 33 31 31 29 33 31 30 29 27 26 24 22 21 20 19 18 16 15 13 13 13 13 13 12 12 12 11 11 11 11
31 30 31 32 32 33 33 33 33 33 33 31 32 32 31 29 24 21 19 31 29 28 26 25 23 22 21 19 18 17 15 13 12 14 14 13 13 13 12 12 12 12 11 11
31 29 30 30 32 32 32 34 33 33 33 33 33 32 32 29 28 26 26 31 29 27 27 25 24 22 20 19 18 16 14 13 13 13 13 14 14 13 13 13 13 12 12 11
30 30 29 29 31 31 31 33 34 33 34 34 32 28 27 30 29 31 31 31 29 27 27 25 23 22 20 18 17 15 14 13 13 13 14 15 14 14 14 13 13 13 12 12
29 29 30 29 30 28 32 35 35 34 34 34 31 31 31 29 29 29 30 30 29 28 26 24 23 21 19 17 15 14 13 13 13 14 15 15 14 14 14 13 13 12 12 12
30 29 28 28 29 31 32 32 33 33 33 34 32 30 31 29 27 26 28 28 27 26 24 23 21 19 17 15 14 13 12 12 15 15 15 14 14 14 13 13 12 12 12 12
25 20 29 29 28 27 29 27 29 33 30 32 32 30 30 29 28 25 26 26 25 24 22 21 19 17 15 14 13 13 14 15 15 14 14 13 13 13 13 13 12 12 12 12
21 19 25 28 28 26 27 24 24 27 28 31 32 31 30 27 26 24 24 23 23 22 20 19 17 16 14 13 13 14 14 14 13 13 13 13 13 13 13 13 12 12 12 12
23 20 27 29 27 25 25 25 23 26 28 29 28 26 24 24 24 23 23 22 21 20 18 18 17 15 13 13 14 14 13 13 13 13 13 14 13 13 13 13 13 13 13 13
24 22 25 29 29 23 25 26 29 29 29 29 28 26 25 24 24 23 22 21 20 19 18 17 15 14 14 13 14 13 14 13 13 13 14 13 13 13 13 13 13 13 13 13
29 26 25 28 27 27 24 23 21 21 29 29 28 27 26 25 24 22 22 20 19 19 18 17 16 15 14 13 13 14 14 13 13 13 13 13 13 13 13 13 13 14 14 13
23 28 26 28 28 26 26 26 26 28 29 28 28 27 26 25 24 23 21 20 20 18 18 17 16 15 14 14 15 14 14 13 13 13 13 13 13 13 13 14 14 14 12 11
19 17 25 26 26 23 20 24 27 28 28 27 27 27 26 25 24 23 21 20 19 18 17 17 16 16 16 15 15 14 14 13 13 13 13 13 13 13 14 14 14 12 11 10

GFSCGP_925_temp_279.txt.gz
Temp
29 27 25 26 28 30 31 31 31 32 35 33 32 32 32 34 35 34 28 27 24 22 21 22 25 26 24 26 25 21 26 25 24 24 22 22 19 20 20 19 19 18 17 16
28 26 28 31 32 32 32 30 30 32 34 34 32 33 35 34 34 33 28 25 23 21 21 20 22 24 23 27 21 20 22 23 23 23 21 20 20 19 18 17 18 17 16 15
27 29 32 32 31 32 31 32 30 30 32 33 34 33 34 33 33 30 28 25 23 20 19 19 19 18 19 21 18 18 19 19 19 20 20 19 18 17 17 16 17 16 16 15
28 31 32 32 32 32 31 34 33 32 30 28 32 27 30 30 31 29 28 24 22 22 21 21 19 18 18 19 17 18 18 18 18 18 19 18 18 17 16 16 16 16 16 15
29 30 30 31 32 33 31 33 32 31 29 30 29 27 28 30 31 27 27 25 23 22 22 22 21 20 18 17 17 17 17 17 18 18 18 18 17 16 16 16 16 15 15 14
30 32 32 32 33 33 34 32 30 30 27 25 27 28 30 29 29 26 26 26 24 23 22 21 21 20 17 17 16 16 16 16 17 17 17 17 16 15 15 15 14 15 15 14
29 30 32 33 31 32 32 29 24 25 25 25 28 28 30 31 29 28 26 25 23 22 21 20 20 19 17 17 16 16 16 15 15 15 15 15 15 15 14 14 13 13 13 13
27 27 31 33 31 30 29 26 23 25 24 27 30 28 28 29 28 27 26 25 24 22 21 21 20 19 18 17 17 16 16 15 15 14 14 14 14 14 14 13 13 12 12 12
27 28 32 33 33 31 29 28 28 27 27 26 28 30 29 29 28 27 26 25 24 23 21 20 20 19 19 18 17 17 16 15 15 14 14 14 13 13 13 13 12 12 11 11
28 26 31 32 33 31 30 29 28 24 25 25 27 29 27 27 27 27 25 24 23 22 21 20 19 19 19 19 18 17 16 15 15 15 14 14 13 13 13 12 12 11 11 11
29 25 29 30 29 30 29 28 28 25 24 23 25 26 28 28 27 26 26 24 23 22 21 20 19 19 19 18 17 17 16 15 15 14 14 13 13 13 12 12 12 11 11 11
28 26 25 28 31 32 29 28 26 23 26 25 24 25 30 28 28 27 27 25 24 23 21 19 19 19 19 18 17 17 16 15 15 14 13 13 12 12 12 12 12 11 11 11
28 24 26 27 28 30 30 30 28 26 24 25 24 24 27 29 29 27 27 26 23 22 21 20 19 19 18 18 17 17 16 15 14 14 13 13 12 12 12 12 11 11 11 11
28 24 27 25 27 28 30 30 30 26 23 25 25 28 29 24 23 22 21 20 19 18 20 20 18 18 18 18 17 16 15 14 13 13 13 13 13 12 12 12 12 11 11 11
26 25 27 27 30 30 30 30 30 28 27 26 28 28 25 24 21 21 20 19 19 19 22 20 18 17 18 18 17 15 14 14 13 13 13 13 13 13 13 12 12 12 12 11
25 25 27 27 30 31 30 30 30 30 30 29 29 29 26 23 22 21 21 20 19 22 22 20 19 18 17 17 16 15 14 13 13 13 13 13 13 13 13 13 13 13 12 12
23 23 24 24 28 29 28 29 30 30 30 30 27 25 25 24 25 22 21 22 23 24 22 20 19 18 17 17 15 14 14 13 13 13 13 14 14 14 13 13 13 12 12 12
24 23 23 24 26 25 28 29 30 29 31 29 26 26 24 23 23 23 24 23 22 22 20 19 18 17 16 15 14 14 13 13 13 14 14 14 14 13 13 13 12 12 12 12
23 23 23 22 23 27 28 29 29 28 28 28 26 26 25 24 23 21 23 22 20 19 19 17 16 15 15 14 14 13 13 13 13 13 14 14 13 13 13 13 12 12 12 12
24 21 24 23 23 23 27 26 25 29 25 25 27 25 24 24 21 20 21 20 19 18 17 15 15 15 14 14 13 13 13 13 13 13 13 13 13 13 13 12 12 12 12 12
20 19 21 22 23 25 24 25 26 24 21 22 24 25 24 23 21 19 20 18 18 17 15 15 15 14 13 13 13 13 14 13 13 13 13 13 13 13 13 13 13 13 12 12
20 18 18 18 18 20 24 24 24 21 21 21 20 20 20 20 20 19 18 17 17 16 15 15 14 13 13 13 13 13 13 13 13 13 13 13 13 13 13 13 13 13 13 12
19 19 17 18 18 19 20 23 21 20 22 22 22 21 21 20 19 19 17 16 16 16 15 14 13 13 13 13 13 13 13 13 13 13 13 13 13 13 13 13 13 13 13 13
21 21 19 21 21 20 22 21 21 23 23 23 22 22 21 20 19 18 17 16 16 16 14 14 14 13 13 13 13 13 14 13 13 13 13 13 13 13 13 13 14 13 12 11
17 18 18 22 21 21 23 23 23 24 24 23 23 22 21 20 19 18 17 16 16 16 16 15 14 13 13 13 13 14 13 13 13 12 12 12 12 13 13 13 13 13 11 10
15 16 17 18 18 20 21 21 22 23 24 24 23 22 21 20 19 18 17 17 17 16 16 15 15 14 14 14 14 14 13 13 13 12 12 12 12 13 13 13 13 13 10 10

GFSCGP_925_temp_285.txt.gz
Temp
26 24 23 24 24 25 26 26 25 26 27 28 26 25 26 25 24 25 24 25 24 22 22 21 21 21 22 23 24 24 24 23 23 22 21 20 19 18 18 18 18 18 17 17
25 23 24 25 26 26 26 26 25 25 27 27 27 27 27 24 25 26 25 24 23 21 20 19 18 19 20 21 21 23 24 22 22 22 21 19 18 17 18 17 17 16 16 16
23 25 26 26 26 26 26 26 25 26 27 28 28 26 25 24 23 25 22 22 23 22 20 17 17 17 18 19 21 21 20 21 20 20 19 18 17 16 16 16 15 15 15 15
24 25 27 26 26 25 24 25 27 27 28 26 27 25 25 23 23 23 22 20 20 20 18 17 16 16 17 18 19 20 20 20 20 19 19 19 18 17 16 15 15 15 15 14
25 27 26 26 26 26 26 27 26 27 26 26 27 25 23 23 24 22 21 20 19 18 17 17 16 16 16 17 18 19 19 19 19 19 19 18 17 16 15 15 15 15 14 13
25 27 27 27 28 27 28 28 25 22 22 24 26 25 24 22 23 23 21 20 19 18 17 16 15 15 15 17 18 17 18 18 18 18 18 17 17 16 15 14 14 13 13 13
24 25 27 29 27 27 27 23 22 23 23 23 24 23 25 26 24 25 23 19 18 17 16 16 15 15 15 16 16 16 17 16 17 17 17 16 16 15 14 13 12 12 13 12
23 23 26 27 26 26 25 23 21 24 22 23 23 24 25 22 23 25 22 19 18 17 16 17 15 14 15 15 15 15 15 15 15 15 15 14 14 13 13 13 13 12 11 11
21 23 26 27 27 27 27 24 24 23 21 22 22 25 25 21 21 21 19 18 17 16 16 16 14 14 14 14 14 15 15 14 14 14 14 14 14 14 14 13 12 11 11 11
24 23 27 27 28 27 27 26 25 20 24 24 22 25 24 21 20 19 19 18 17 16 16 15 14 14 14 15 15 15 14 14 14 14 14 15 14 13 13 12 11 11 11 10
23 23 26 27 25 25 25 25 23 21 20 21 21 22 22 22 21 20 20 19 18 17 17 16 15 15 15 15 15 15 14 14 14 15 14 14 13 12 12 12 11 11 11 10
24 20 22 25 27 26 25 25 22 21 23 19 20 21 25 23 22 22 20 20 18 18 17 16 15 14 14 15 15 16 15 15 15 14 13 13 12 12 12 11 11 11 11 11
24 20 19 20 24 25 25 25 24 21 19 20 22 22 24 22 22 22 21 20 19 17 16 15 14 14 14 15 15 15 15 15 14 14 13 12 12 12 12 12 12 11 11 11
21 19 20 19 22 23 25 25 24 23 20 23 21 25 25 21 21 21 21 20 19 17 17 16 14 14 14 14 15 14 15 14 14 13 13 12 12 12 12 12 12 12 11 11
20 20 19 21 22 23 25 26 24 23 23 23 26 23 25 21 21 21 21 19 18 17 17 16 15 15 14 13 14 14 14 14 13 13 12 13 12 13 12 12 12 12 12 12
17 19 21 21 23 23 24 25 26 24 24 24 24 24 23 20 20 21 20 19 18 18 17 16 16 15 14 13 13 14 14 13 13 13 13 13 13 13 12 12 12 12 12 12
16 17 19 19 22 23 23 24 26 26 25 25 25 24 19 19 21 21 20 20 19 19 17 16 16 15 14 13 14 14 13 13 13 13 13 13 13 13 13 12 12 12 12 11
16 18 18 18 22 21 23 24 26 26 26 24 25 22 21 20 21 20 20 20 20 18 17 16 16 15 13 14 14 14 13 13 13 13 13 13 13 13 12 12 12 12 12 12
16 15 18 18 18 21 24 26 27 25 25 23 24 22 20 19 19 20 19 21 20 18 17 16 15 13 14 14 14 13 12 13 13 13 13 13 12 12 12 12 12 12 12 12
16 17 19 16 18 19 22 26 25 27 24 24 21 20 19 20 19 19 18 17 16 15 14 12 13 14 14 13 13 13 12 12 13 13 13 12 12 12 12 12 12 12 11 11
16 15 17 18 17 18 20 22 23 24 25 22 21 21 20 22 20 16 16 14 13 13 12 13 13 12 13 13 13 13 12 13 13 12 12 12 12 12 12 12 12 12 12 11
17 16 15 15 16 18 21 22 23 21 20 20 20 19 18 15 14 14 13 12 12 11 12 12 12 12 12 13 13 12 13 12 12 12 12 12 12 12 12 12 12 12 12 11
16 17 18 16 16 18 19 21 20 17 18 20 19 17 17 15 14 14 13 13 12 12 11 11 12 11 12 13 13 12 12 12 12 12 12 12 12 12 12 12 12 12 12 11
15 15 15 16 20 19 18 19 19 19 19 19 18 17 16 15 14 14 13 12 12 12 11 11 11 11 11 12 13 13 13 12 12 12 12 12 12 12 12 11 12 11 10 9
12 13 15 15 17 18 18 18 19 18 18 18 18 18 16 16 15 14 13 13 11 11 10 11 11 12 12 12 13 13 12 12 12 12 12 12 11 11 11 12 12 11 10 9
12 14 14 16 16 15 16 16 19 19 19 18 18 17 18 18 16 15 13 12 11 10 11 11 12 12 12 12 13 13 12 12 12 12 12 12 11 11 11 11 12 11 10 9

GFSCGP_925_temp_291.txt.gz
Temp
26 27 28 28 28 28 28 28 28 29 29 29 31 30 32 31 28 29 29 30 30 30 27 23 21 21 22 24 23 24 22 22 22 20 19 18 17 16 16 16 17 17 17 16
26 27 27 27 26 27 27 27 28 29 28 29 31 31 32 29 28 28 29 29 29 27 24 22 21 21 21 21 20 21 21 22 21 20 19 18 16 15 15 16 17 16 15 15
27 28 26 27 27 27 28 27 28 28 29 30 29 31 31 30 27 27 27 28 28 27 25 21 20 19 19 20 20 19 20 20 20 20 20 18 16 15 15 15 14 15 15 15
27 28 27 27 27 27 27 28 28 28 28 30 29 31 31 29 31 28 27 27 28 27 25 22 20 18 18 17 17 18 18 18 19 20 19 18 18 17 15 14 15 15 15 14
28 27 26 27 28 28 28 28 28 28 28 28 29 30 33 28 33 34 29 26 26 25 24 23 20 18 16 17 18 17 17 17 18 19 18 18 17 16 16 14 14 14 14 13
28 27 28 29 28 28 28 28 26 25 27 28 30 30 32 32 32 32 27 25 25 23 23 22 19 16 16 17 17 17 17 16 17 17 18 18 17 15 14 13 13 13 12 11
26 28 28 28 28 27 28 27 27 28 28 29 26 28 31 32 30 29 29 27 24 23 22 20 18 17 17 17 17 16 16 15 16 17 16 16 16 15 14 13 13 12 12 11
26 27 27 28 29 29 27 28 28 27 28 29 26 29 31 29 28 27 26 26 24 22 22 20 18 18 19 18 17 16 15 14 14 14 15 15 15 13 13 12 12 12 12 11
25 26 27 27 28 29 27 27 27 26 23 27 29 29 29 29 28 27 25 23 21 21 22 21 18 17 19 17 15 15 15 14 14 14 14 13 14 14 13 12 12 11 10 10
26 26 28 28 28 27 28 27 27 26 26 26 28 27 30 31 32 31 26 24 21 21 21 21 18 16 18 16 15 15 15 14 13 13 13 13 13 13 12 11 11 11 11 10
25 25 27 27 28 29 27 28 25 26 26 27 27 29 29 30 31 30 30 27 24 19 21 19 16 18 17 15 15 14 14 14 13 14 13 13 12 11 11 11 12 12 11 11
23 24 25 27 27 26 28 29 28 27 26 25 25 27 29 29 30 28 28 27 25 22 19 18 19 17 16 16 15 15 14 14 14 13 12 12 11 11 11 12 12 12 11 10
23 23 25 26 26 26 27 26 26 24 24 26 26 28 28 28 28 29 27 26 24 22 21 20 18 18 17 16 15 15 14 14 13 13 12 12 12 12 12 12 12 12 11 11
20 22 24 25 26 25 25 26 26 25 25 27 27 28 29 29 29 31 27 25 24 22 21 20 19 18 17 16 15 14 14 14 13 12 12 13 12 12 12 13 12 11 11 10
19 21 22 24 24 24 25 25 26 25 26 25 28 28 29 29 29 29 28 24 22 21 21 20 19 18 17 16 14 14 14 13 12 13 13 13 12 13 12 12 12 11 11 11
18 21 20 22 24 25 24 26 26 26 26 26 26 26 29 29 27 27 27 25 23 22 22 20 19 18 17 15 14 14 13 13 12 13 13 12 12 12 11 12 11 11 11 11
18 20 20 22 22 24 24 26 26 27 28 28 28 29 30 28 27 29 28 26 25 24 22 20 19 18 17 15 14 14 13 12 13 13 13 12 12 12 12 11 11 11 11 10
17 18 20 20 21 21 25 26 25 26 27 28 28 28 29 28 28 27 28 27 25 24 22 20 19 18 16 14 14 14 13 13 13 13 13 12 12 12 12 11 11 11 10 10
15 17 19 20 21 23 23 25 25 26 26 28 27 28 29 27 24 27 27 26 25 24 22 20 19 17 15 14 14 14 13 13 13 13 13 12 12 12 12 12 11 10 10 10
15 16 17 19 19 20 23 25 27 26 25 28 29 28 28 24 28 31 26 25 23 22 19 20 18 16 15 14 14 14 13 13 13 13 12 12 12 12 12 11 11 10 10 10
13 14 15 17 18 21 23 25 25 23 23 21 23 25 25 25 27 22 22 22 22 20 19 17 16 16 15 13 14 14 13 13 13 12 12 11 11 11 11 10 10 10 10 10
17 16 15 16 17 18 21 23 23 20 20 21 22 23 23 24 23 21 20 19 19 18 16 16 17 15 13 13 14 13 13 12 12 11 11 11 11 11 11 10 10 10 10 10
16 18 19 18 20 19 19 19 19 20 20 21 21 22 22 23 22 20 19 18 18 17 17 16 15 13 13 13 13 13 12 11 11 11 11 11 11 10 10 10 10 11 11 11
17 15 15 16 20 20 19 19 20 20 19 19 20 20 21 21 21 19 17 18 17 16 15 14 14 13 12 12 12 12 11 11 11 11 11 11 11 11 10 11 11 11 11 11
14 14 15 16 17 18 19 20 17 17 17 17 19 19 20 21 20 18 17 16 16 15 14 14 14 14 11 11 12 12 11 11 11 11 11 11 11 11 11 11 11 11 10 10
12 13 14 15 16 16 16 16 16 16 16 17 18 19 20 19 19 17 17 15 14 14 14 13 12 12 12 12 12 11 11 11 11 11 12 12 12 12 12 11 12 11 11 9